STARLINK-32555, 61918

Orbit data source: Space-Track

STARLINK-32555, 61918 is a payload satellite owned by SpaceX/Seattle (US) in LEO that was launched on Mon, 11 Nov 2024 UTC via an FALCON 9 launch vehicle from the Air Force Eastern Test Range (AFETR). Payload-class satellites include a variety of spacecraft equipped with specific instruments for various scientific and technological missions. These include communications satellites like Starlink; space stations such as the ISS; scientific satellites like the Hubble; Earth observation satellites from companies like Planet Labs, Umbra, and HawkEye 360; GPS; miniature CubeSats for education and research; and military/defense satellites.

Loading next visibility...
Identifier
61918, 2024-207G
Orbit
LEO
Country
Flag of USUS
Related business
Manufacturer
SpaceX/Seattle
Mission
Operational Commercial Communications
Bus & Motor
STARLINK V2M, Unknown motor
Mass
730 kg wet, ~700 kg dry
Launch date (UTC)
2024-11-11 (1 year ago)
Launch vehicle
FALCON 9
Launch site
Air Force Eastern Test Range (AFETR)
Object type
Payload
Rocket body
Debris
Shape & HBR
Box + 2 Pan, 17.7 m
Radar Cross Section
33.884 m², Large (>1 m²)

Expand to show TLE details & history
Last TLE update: 11 hours ago

TLE from 11 hours ago
0 STARLINK-32555
1 61918U 24207G   25312.83226003  .00081444  00000-0  29294-2 0  9996
2 61918  43.0020 248.1662 0002474 264.8920  95.1649 15.27659911 56194
Epoch: 2025-11-08T19:58Z
TLE epoch observation values (Epoch: 2025-11-08T19:58:27.266Z)
Latitude
-0.00005°
Longitude
-99.70367°
Altitude
482.739 km
Speed
7.626 km/s
True Right ascension
16h 32m 39s
True Declination
0° 00' 00"
Sunlit
Object was in daylight at epoch
Visualization orbit readout
Latitude
Unknown
Longitude
Unknown
Altitude
Unknown
Speed
Unknown
Apparent Right ascension
Unknown
Apparent Declination
Unknown
Sunlit
N/A
Visualization observer readout
Local Sidereal Time
02:52:47
Azimuth
Unknown
Elevation
Unknown
Doppler factor
Unknown
Orbital elements
Apogee altitude
486.453 km
Perigee altitude
483.057 km
Semi-major axis
6,862.892 km
Eccentricity
0.00025
Inclination
43.002°
RAAN
248.1662°
Arg. of periapsis
264.892°
True anomaly
95.19313°
Mean anomaly
95.1649°
Eccentric anomaly
95.17902°
Mean motion
3.81753 °/min
Orbital period
94.3 mins
BSTAR
0.0029294
Loading maneuver chart data...
Computing Atmospheric mass density...
Loading historical data...
Loading historical data...
Loading historical data...
Loading historical data...
Loading historical data...
Loading historical data...
Loading historical data...

Documentation

Showing up to 5 results
|